When you browse on this site, cookies collect data to enhance your experience and personalize the content and advertising you see.
Visit our Privacy Policy to learn more. By continuing to use the site, you agree to this use of cookies and data.
  • In Deutschland
  • Länderverzeichnis
  • Für 7 Tage
  • Wassertemperatur
  • Satellitenkarten
  • Wetterkarte
  • Widgets
  • user-avatar
    Anmelden

    Stündliche Wetter Witebsk

    Heute, 25 April, Donnerstag

    Zeit Temperatur Niederschläge Wind Luftdruck Luftfeuchtigkeit
    00:00 +13°C° 0 mm 1 m/S 754 mmHg 57%
    01:00 +12°C° 0 mm 1 m/S 754 mmHg 58%
    02:00 +11°C° 0 mm 1 m/S 754 mmHg 57%
    03:00 +11°C° 0 mm 1 m/S 754 mmHg 57%
    04:00 +11°C° 0 mm 1 m/S 754 mmHg 58%
    05:00 +10°C° 0 mm 1 m/S 754 mmHg 59%
    06:00 +12°C° 0 mm 1 m/S 754 mmHg 56%
    07:00 +14°C° 0 mm 1 m/S 754 mmHg 52%
    08:00 +16°C° 0 mm 2 m/S 754 mmHg 49%
    09:00 +18°C° 0 mm 2 m/S 754 mmHg 44%
    10:00 +19°C° 0 mm 3 m/S 754 mmHg 39%
    11:00 +21°C° 0 mm 3 m/S 754 mmHg 34%
    12:00 +21°C° 0 mm 3 m/S 753 mmHg 33%
    13:00 +22°C° 0 mm 3 m/S 753 mmHg 32%
    14:00 +22°C° 0 mm 3 m/S 753 mmHg 32%
    15:00 +22°C° 0 mm 3 m/S 753 mmHg 35%
    16:00 +21°C° 0 mm 3 m/S 752 mmHg 37%
    17:00 +21°C° 0 mm 2 m/S 752 mmHg 40%
    18:00 +19°C° 0 mm 2 m/S 752 mmHg 45%
    19:00 +17°C° 0 mm 2 m/S 752 mmHg 50%
    20:00 +15°C° 0 mm 2 m/S 752 mmHg 55%
    21:00 +14°C° 0 mm 2 m/S 752 mmHg 57%
    22:00 +14°C° 0 mm 2 m/S 752 mmHg 58%
    23:00 +13°C° 0 mm 2 m/S 751 mmHg 60%

    Morgen, 26 April, Freitag

    Zeit Temperatur Niederschläge Wind Luftdruck Luftfeuchtigkeit
    00:00 +12°C° 0 mm 2 m/S 751 mmHg 60%
    01:00 +12°C° 0 mm 2 m/S 751 mmHg 61%
    02:00 +10°C° 0 mm 2 m/S 751 mmHg 62%
    03:00 +10°C° 0 mm 2 m/S 751 mmHg 63%
    04:00 +10°C° 0 mm 2 m/S 751 mmHg 64%
    05:00 +9°C° 0 mm 2 m/S 751 mmHg 64%
    06:00 +12°C° 0 mm 2 m/S 751 mmHg 61%
    07:00 +14°C° 0 mm 2 m/S 751 mmHg 57%
    08:00 +16°C° 0 mm 2 m/S 750 mmHg 54%
    09:00 +17°C° 0 mm 3 m/S 750 mmHg 49%
    10:00 +19°C° 0 mm 4 m/S 750 mmHg 45%
    11:00 +20°C° 0 mm 4 m/S 750 mmHg 41%
    12:00 +20°C° 0 mm 4 m/S 750 mmHg 41%
    13:00 +21°C° 0 mm 4 m/S 749 mmHg 41%
    14:00 +21°C° 0 mm 4 m/S 749 mmHg 41%
    15:00 +21°C° 0 mm 3 m/S 748 mmHg 43%
    16:00 +21°C° 0 mm 3 m/S 748 mmHg 45%
    17:00 +21°C° 0 mm 3 m/S 747 mmHg 47%
    18:00 +19°C° 0 mm 3 m/S 747 mmHg 53%
    19:00 +17°C° 0 mm 3 m/S 747 mmHg 59%
    20:00 +15°C° 0 mm 2 m/S 747 mmHg 65%
    21:00 +14°C° 0 mm 2 m/S 747 mmHg 65%
    22:00 +14°C° 0 mm 2 m/S 747 mmHg 66%
    23:00 +13°C° 0 mm 2 m/S 746 mmHg 66%

    übermorgen, 27 April, Samstag

    Zeit Temperatur Niederschläge Wind Luftdruck Luftfeuchtigkeit
    00:00 +12°C° 0 mm 3 m/S 746 mmHg 67%
    01:00 +11°C° 0 mm 3 m/S 746 mmHg 68%
    02:00 +11°C° 0 mm 3 m/S 746 mmHg 68%
    03:00 +11°C° 0 mm 3 m/S 745 mmHg 70%
    04:00 +10°C° 0 mm 3 m/S 745 mmHg 72%
    05:00 +10°C° 0 mm 3 m/S 744 mmHg 74%
    06:00 +11°C° 0 mm 3 m/S 744 mmHg 71%
    07:00 +13°C° 0 mm 3 m/S 744 mmHg 68%
    08:00 +16°C° 0 mm 3 m/S 744 mmHg 65%
    09:00 +17°C° 0.1 mm 4 m/S 743 mmHg 63%
    10:00 +19°C° 0.1 mm 4 m/S 743 mmHg 61%
    11:00 +20°C° 0.1 mm 4 m/S 743 mmHg 59%
    12:00 +21°C° 0.4 mm 4 m/S 742 mmHg 59%
    13:00 +21°C° 0.4 mm 4 m/S 742 mmHg 58%
    14:00 +22°C° 0.4 mm 3 m/S 741 mmHg 58%
    15:00 +22°C° 1 mm 3 m/S 741 mmHg 61%
    16:00 +21°C° 1 mm 3 m/S 741 mmHg 64%
    17:00 +21°C° 1 mm 3 m/S 740 mmHg 67%
    18:00 +19°C° 0.1 mm 2 m/S 740 mmHg 73%
    19:00 +17°C° 0.1 mm 2 m/S 740 mmHg 80%
    20:00 +16°C° 0.1 mm 1 m/S 740 mmHg 86%
    21:00 +15°C° 0 mm 1 m/S 740 mmHg 87%
    22:00 +15°C° 0 mm 1 m/S 740 mmHg 89%
    23:00 +14°C° 0 mm 1 m/S 740 mmHg 90%

    28 April, Sonntag

    Zeit Temperatur Niederschläge Wind Luftdruck Luftfeuchtigkeit
    00:00 +14°C° 0 mm 1 m/S 740 mmHg 91%
    01:00 +14°C° 0 mm 1 m/S 740 mmHg 92%
    02:00 +13°C° 0 mm 1 m/S 740 mmHg 92%
    03:00 +13°C° 0 mm 2 m/S 740 mmHg 93%
    04:00 +12°C° 0 mm 3 m/S 740 mmHg 94%
    05:00 +11°C° 0 mm 3 m/S 740 mmHg 95%
    06:00 +12°C° 0 mm 4 m/S 741 mmHg 91%
    07:00 +12°C° 0 mm 5 m/S 741 mmHg 88%
    08:00 +13°C° 0 mm 6 m/S 742 mmHg 84%
    09:00 +11°C° 0 mm 6 m/S 743 mmHg 82%
    10:00 +11°C° 0 mm 6 m/S 743 mmHg 81%
    11:00 +10°C° 0 mm 6 m/S 744 mmHg 79%
    12:00 +10°C° 0 mm 6 m/S 745 mmHg 75%
    13:00 +10°C° 0 mm 6 m/S 745 mmHg 71%
    14:00 +10°C° 0 mm 6 m/S 745 mmHg 67%
    15:00 +11°C° 0 mm 6 m/S 746 mmHg 61%
    16:00 +13°C° 0 mm 6 m/S 746 mmHg 55%
    17:00 +13°C° 0 mm 6 m/S 746 mmHg 49%
    18:00 +10°C° 0 mm 5 m/S 747 mmHg 50%
    19:00 +9°C° 0 mm 5 m/S 747 mmHg 51%
    20:00 +7°C° 0 mm 4 m/S 748 mmHg 51%
    21:00 +6°C° 0 mm 4 m/S 748 mmHg 52%
    22:00 +5°C° 0 mm 4 m/S 749 mmHg 54%
    23:00 +3°C° 0 mm 5 m/S 750 mmHg 55%

    29 April, Montag

    Zeit Temperatur Niederschläge Wind Luftdruck Luftfeuchtigkeit
    00:00 +3°C° 0 mm 4 m/S 750 mmHg 55%
    01:00 +1°C° 0 mm 4 m/S 750 mmHg 54%
    02:00 +1°C° 0 mm 4 m/S 750 mmHg 54%
    03:00 0°C° 0 mm 4 m/S 751 mmHg 56%
    04:00 0°C° 0 mm 4 m/S 751 mmHg 57%
    05:00 -1°C° 0 mm 4 m/S 751 mmHg 59%
    06:00 0°C° 0 mm 4 m/S 751 mmHg 56%
    07:00 +2°C° 0 mm 5 m/S 751 mmHg 53%
    08:00 +3°C° 0 mm 5 m/S 752 mmHg 50%
    09:00 +5°C° 0 mm 5 m/S 752 mmHg 48%
    10:00 +6°C° 0 mm 5 m/S 752 mmHg 45%
    11:00 +8°C° 0 mm 5 m/S 752 mmHg 43%
    12:00 +8°C° 0 mm 5 m/S 751 mmHg 42%
    13:00 +9°C° 0 mm 5 m/S 751 mmHg 40%
    14:00 +11°C° 0 mm 4 m/S 751 mmHg 39%
    15:00 +11°C° 0 mm 4 m/S 751 mmHg 40%
    16:00 +10°C° 0 mm 4 m/S 750 mmHg 40%
    17:00 +10°C° 0 mm 4 m/S 750 mmHg 41%
    18:00 +9°C° 0 mm 3 m/S 750 mmHg 47%
    19:00 +7°C° 0 mm 3 m/S 750 mmHg 52%
    20:00 +5°C° 0 mm 2 m/S 750 mmHg 58%
    21:00 +5°C° 0 mm 2 m/S 751 mmHg 59%
    22:00 +4°C° 0 mm 2 m/S 751 mmHg 60%
    23:00 +3°C° 0 mm 2 m/S 751 mmHg 62%

    30 April, Dienstag

    Zeit Temperatur Niederschläge Wind Luftdruck Luftfeuchtigkeit
    00:00 +3°C° 0 mm 2 m/S 751 mmHg 62%
    01:00 +2°C° 0 mm 2 m/S 751 mmHg 63%
    02:00 +2°C° 0 mm 2 m/S 750 mmHg 64%
    03:00 +2°C° 0 mm 2 m/S 750 mmHg 65%
    04:00 +1°C° 0 mm 2 m/S 750 mmHg 67%
    05:00 +1°C° 0 mm 2 m/S 750 mmHg 68%
    06:00 +3°C° 0 mm 2 m/S 750 mmHg 63%
    07:00 +5°C° 0 mm 2 m/S 750 mmHg 58%
    08:00 +7°C° 0 mm 2 m/S 750 mmHg 52%
    09:00 +8°C° 0 mm 2 m/S 750 mmHg 47%
    10:00 +9°C° 0 mm 3 m/S 750 mmHg 42%
    11:00 +11°C° 0 mm 3 m/S 750 mmHg 37%
    12:00 +11°C° 0 mm 3 m/S 750 mmHg 36%
    13:00 +12°C° 0 mm 3 m/S 750 mmHg 35%
    14:00 +12°C° 0 mm 3 m/S 749 mmHg 34%
    15:00 +13°C° 0 mm 2 m/S 749 mmHg 35%
    16:00 +13°C° 0 mm 2 m/S 749 mmHg 36%
    17:00 +13°C° 0 mm 2 m/S 749 mmHg 37%
    18:00 +10°C° 0 mm 2 m/S 749 mmHg 43%
    19:00 +8°C° 0 mm 2 m/S 749 mmHg 49%
    20:00 +7°C° 0 mm 2 m/S 749 mmHg 55%
    21:00 +6°C° 0 mm 2 m/S 749 mmHg 56%
    22:00 +5°C° 0 mm 2 m/S 749 mmHg 58%
    23:00 +5°C° 0 mm 2 m/S 749 mmHg 59%
    Mehr zeigen